Home > Weather > Salina > Past weeks

Flag for U.S.A. Weather for the Past 2 Weeks in Salina, Kansas, U.S.A.

Now
68 °F

Sunny.


Feels Like: 68 °F
Forecast: 27 / 64 °F
Wind: 17 mph from Northwest

Location: Salina Municipal Airport

Current Time: Feb 10, 2016 at 4:38:58 PM

Latest Report: Feb 10, 2016 at 3:53 PM


Visibility: 10 mi

Pressure: 29.88 "Hg

Humidity: 22%

Dew point: 28 °F

Location of SalinaLocation

Historic Weather in Salina — Graph

°F

Salina Temperature Yesterday

Maximum temperature yesterday: 39 °F (at 12:53 PM)
Minimum temperature yesterday: 22 °F (at 11:53 PM)
Average temperature yesterday: 32 °F

High & Low Weather Summary for the Past Weeks

 TemperatureHumidityPressure
High69 °F (Feb 10, 1:53 PM)89% (Feb 2, 5:53 AM)30.44 "Hg (Feb 2, 5:53 AM)
Low20 °F (Feb 4, 12:53 AM)20% (Feb 7, 2:53 PM)29.31 "Hg (Feb 2, 6:53 AM)
Average38 °F59%30.04 "Hg
* Reported Jan 26 2:53 PM — Feb 10 2:53 PM, Salina, Weather by CustomWeather, © 2016

Note: Actual official high and low records may vary slightly from our data, if they occured in-between our weather recording intervals... More about our weather records

Advertising

Salina Weather History for the Previous 24 Hours

 ConditionsComfort  
Time TempWeatherWind HumidityBarometerVisibility
2:53 PM
Wed, Feb 10
68 °FSunny.18 mph21%29.88 "Hg10 mi
1:53 PM69 °FSunny.15 mph21%29.89 "Hg10 mi
12:53 PM65 °FSunny.10 mph25%29.93 "Hg10 mi
11:53 AM56 °FSunny.9 mph36%29.98 "Hg10 mi
10:53 AM47 °FSunny.12 mph46%30.03 "Hg10 mi
9:53 AM39 °FSunny.13 mph55%30.05 "Hg10 mi
8:53 AM33 °FSunny.16 mph63%30.07 "Hg10 mi
7:53 AM29 °FSunny.15 mph69%30.09 "Hg10 mi
6:53 AM28 °FClear.13 mph69%30.12 "Hg10 mi
5:53 AM29 °FClear.10 mph64%30.14 "Hg10 mi
4:53 AM27 °FClear.7 mph66%30.15 "Hg10 mi
3:53 AM27 °FPassing clouds.7 mph63%30.20 "Hg10 mi
2:53 AM29 °FOvercast.8 mph61%30.22 "Hg10 mi
1:53 AM29 °FOvercast.8 mph61%30.23 "Hg10 mi
12:53 AM27 °FOvercast.8 mph66%30.25 "Hg10 mi
11:53 PM
Tue, Feb 9
22 °FPassing clouds.6 mph72%30.29 "Hg10 mi
10:53 PM24 °FClear.6 mph62%30.30 "Hg10 mi
9:53 PM24 °FClear.5 mph60%30.32 "Hg10 mi
8:53 PM30 °FPassing clouds.No wind43%30.35 "Hg10 mi
7:53 PM29 °FOvercast.6 mph51%30.36 "Hg10 mi
6:53 PM29 °FPassing clouds.6 mph51%30.37 "Hg10 mi
5:53 PM31 °FPartly sunny.8 mph43%30.36 "Hg10 mi
4:53 PM34 °FSunny.16 mph40%30.35 "Hg10 mi
Weather by CustomWeather, © 2016

See weather overviewHow to use our weather pages